AirNav   TITAN Aviation Fuels
 
 1174 users online  

4MO6 Mark Twain Air Park
Louisiana, Missouri, USA

GOING TO LOUISIANA?


FAA INFORMATION EFFECTIVE 01 DECEMBER 2022

Location

FAA Identifier: 4MO6
Lat/Long: 39-26-20.1650N 091-07-05.5020W
39-26.336083N 091-07.091700W
39.4389347,-91.1181950
(estimated)
Elevation: 840 ft. / 256 m (estimated)
Variation: 02E (1985)
From city: 3 miles W of LOUISIANA, MO
Time zone: UTC -6 (UTC -5 during Daylight Saving Time)
Zip code: 63353

Airport Operations

Airport use: Private use. Permission required prior to landing
Activation date: 03/1967
Control tower: no
ARTCC: KANSAS CITY CENTER
FSS: COLUMBIA FLIGHT SERVICE STATION
Attendance: UNATNDD
Wind indicator: yes
Segmented circle: no

Airport Communications

WX AWOS-3 at PPQ (20 nm NE): 118.525 (217-285-1428)

Nearby radio navigation aids

VOR radial/distance  VOR name  Freq  Var
UINr158/25.6QUINCY VORTAC113.6005E

Airport Services

Airframe service: NONE
Powerplant service: NONE

Runway Information

Runway 1/19

Dimensions: 2300 x 100 ft. / 701 x 30 m
Surface: turf
RUNWAY 1  RUNWAY 19
Traffic pattern: leftleft

Airport Ownership and Management from official FAA records

Ownership: Privately-owned
Owner: ROBERT P. MC FADDEN
10340 SAVANNAH AVENUE
ST LOUIS, MO 63131
Phone 314-352-5864

Airport Operational Statistics

Aircraft based on the field: 3
Single engine airplanes: 3
    

Additional Remarks

RWY SOFT AFTER RAINS.
FOR CD CTC KANSAS CITY ARTCC AT 913-254-8508.

Instrument Procedures

There are no published instrument procedures at 4MO6.

Some nearby airports with instrument procedures:

H19 - Bowling Green Municipal Airport (6 nm SW)
KPPQ - Pittsfield Penstone Municipal Airport (20 nm NE)
KHAE - Hannibal Regional Airport (23 nm NW)
KUIN - Quincy Regional Airport-Baldwin Field (30 nm N)
K52 - Cpt Ben Smith Airfield - Monroe City (31 nm NW)
 
Loc | Ops | Rwys | IFR | FBO | Links
Com | Nav | Svcs | Stats | Notes
Area around 4MO6 (Mark Twain Air Park)
 
Road maps at: MapQuest Bing Google
 
Aerial photo
No photo
 
Sectional chart

 
Airport distance calculator
Flying to Mark Twain Air Park? Find the distance to fly.

From to 4MO6

Sunrise and sunset
Times for 08-Dec-2022
 Local
(UTC-6)
 Zulu
(UTC)
Morning civil twilight06:4312:43
Sunrise07:1313:13
Sunset16:4022:40
Evening civil twilight17:1023:10

Current date and time
Zulu (UTC)  08-Dec-2022 13:54:48
Local (UTC-6)  08-Dec-2022 07:54:48
 
METAR
KPPQ 
19nm NE 
081335Z AUTO 00000KT 1 3/4SM BKN006 OVC016 04/04 A3030 RMK AO2 T00420042
KHAE 
23nm NW 
081335Z AUTO 08004KT 1 3/4SM BR OVC004 05/03 A3029 RMK AO2
KUIN 
31nm N 
081335Z AUTO 07008KT 2SM BR BKN006 OVC014 04/03 A3029 RMK AO2 T00440028
KI63 
36nm NE 
081335Z AUTO 06004KT 3SM BR BKN004 OVC013 03/03 A3031 RMK AO2 T00320030
KMYJ 
37nm SW 
081335Z AUTO 08008KT 3SM BR OVC010 05/03 A3025 RMK AO2
TAF
KUIN 
31nm N 
081139Z 0812/0912 08008KT 2SM BR OVC005 FM081400 08009KT 4SM BR OVC006 FM081600 08008KT P6SM OVC012 FM090100 10010G18KT P6SM VCSH OVC009 FM090300 11010G18KT 5SM -SHRA BR OVC008 FM090600 12009KT 3SM -SHRA BR OVC005
NOTAMs
Click for the latest NOTAMs
NOTAMs are issued by the DoD/FAA and will open in a separate window not controlled by AirNav.

 

 
 

Would you like to see your business listed on this page?

 If your business provides an interesting product or service to pilots, flight crews, aircraft, or users of the Mark Twain Air Park, you should consider listing it here.  To start the listing process, click on the button below
 
Add a business
 

Other Pages about Mark Twain Air Park

Update a link
 
Copyright © AirNav, LLC. All rights reserved. Privacy Policy  Contact